THA8886 VNKT-ESSA

Flight info

Callsign THA8886
Flight time N/A
Altitude 36000
Route DARKE1F NARAN B345 LKN M890 SULOM L509 TAPIS P173 DAVET B475 DOLOS B449 INRAK A240 KRS DCT LARGI N701 BAKUV L850 ADEKI DCT BADIR DCT TETRO M10 SARPI DCT KARDE DCT SIN DCT ODERO DCT GEMTO DCT PENOR DCT NILUG
Aircraft A359/H-SDE2E3GHIJ3J4J5LM1ORWXY/LB1D1

Departure

Time 2026-04-30 19:06
Airport Tribhuvan International Airport (VNKT)

Arrival

Time N/A
Airport Stockholm-Arlanda Airport (ESSA)
Time Latitude Longitude Altitude Speed Heading
2026-04-30 18:52 27.70041 85.35871 4396 ft 0 kts 290°
2026-04-30 18:57 27.70040 85.35874 4397 ft 3 kts 290°
2026-04-30 18:58 27.70026 85.35917 4397 ft 3 kts 290°
2026-04-30 18:58 27.70022 85.35940 4397 ft 3 kts 258°
2026-04-30 18:58 27.70030 85.35960 4397 ft 3 kts 216°
2026-04-30 18:59 27.70053 85.35975 4460 ft 0 kts 199°
2026-04-30 19:00 27.70043 85.35971 4428 ft 5 kts 199°
2026-04-30 19:00 27.69986 85.35947 4423 ft 12 kts 202°
2026-04-30 19:00 27.69750 85.35840 4440 ft 23 kts 201°
2026-04-30 19:01 27.69459 85.35707 4440 ft 22 kts 202°
2026-04-30 19:01 27.69319 85.35644 4435 ft 21 kts 201°
2026-04-30 19:02 27.69061 85.35599 4437 ft 17 kts 140°
2026-04-30 19:02 27.68839 85.35545 4436 ft 22 kts 202°
2026-04-30 19:03 27.68542 85.35410 4437 ft 18 kts 201°
2026-04-30 19:03 27.68440 85.35333 4435 ft 0 kts 157°
2026-04-30 19:04 27.68437 85.35340 4435 ft 3 kts 123°
2026-04-30 19:04 27.68470 85.35378 4412 ft 0 kts 23°
2026-04-30 19:05 27.68533 85.35407 4401 ft 34 kts 22°
2026-04-30 19:06 27.69834 85.35999 4399 ft 162 kts 21°
2026-04-30 19:06 27.70972 85.36513 4881 ft 175 kts 22°
2026-04-30 19:06 27.73143 85.37912 5976 ft 195 kts 46°
2026-04-30 19:07 27.74119 85.40954 6375 ft 230 kts 88°
2026-04-30 19:07 27.74071 85.42805 6690 ft 242 kts 96°
2026-04-30 19:08 27.72503 85.46155 7767 ft 250 kts 142°
2026-04-30 19:08 27.69216 85.47182 8967 ft 255 kts 187°
2026-04-30 19:08 27.67480 85.46679 9433 ft 263 kts 204°
2026-04-30 19:09 27.64698 85.44022 10574 ft 268 kts 238°
2026-04-30 19:09 27.63940 85.42103 11175 ft 269 kts 256°
2026-04-30 19:09 27.63721 85.40002 11779 ft 271 kts 272°
2026-04-30 19:10 27.64771 85.35925 12867 ft 283 kts 293°
2026-04-30 19:10 27.66452 85.31635 13396 ft 315 kts 293°
2026-04-30 19:11 27.67346 85.29314 13668 ft 330 kts 293°
2026-04-30 19:11 27.69239 85.24340 14169 ft 358 kts 293°
2026-04-30 19:11 27.70235 85.21717 14379 ft 370 kts 293°
2026-04-30 19:12 27.71265 85.19001 14586 ft 382 kts 292°
2026-04-30 19:12 27.72321 85.16204 14827 ft 391 kts 292°
2026-04-30 19:12 27.73394 85.13362 15225 ft 395 kts 292°
2026-04-30 19:13 27.75318 85.07510 16117 ft 400 kts 283°
2026-04-30 19:13 27.75709 85.01246 17030 ft 404 kts 264°
2026-04-30 19:13 27.75347 84.98093 17465 ft 406 kts 262°
2026-04-30 19:14 27.74925 84.94976 17924 ft 408 kts 262°
2026-04-30 19:14 27.74495 84.91799 18357 ft 410 kts 262°
2026-04-30 19:14 27.74074 84.88662 18738 ft 413 kts 262°
2026-04-30 19:14 27.73644 84.85453 19122 ft 415 kts 262°
2026-04-30 19:15 27.73212 84.82217 19518 ft 417 kts 262°
2026-04-30 19:15 27.72343 84.75697 20314 ft 422 kts 262°
2026-04-30 19:15 27.71904 84.72404 20695 ft 425 kts 262°
2026-04-30 19:16 27.71470 84.69146 21066 ft 427 kts 262°
2026-04-30 19:16 27.71027 84.65809 21472 ft 430 kts 262°
2026-04-30 19:16 27.70126 84.59096 22242 ft 435 kts 262°
2026-04-30 19:17 27.69670 84.55718 22630 ft 438 kts 262°
2026-04-30 19:17 27.68746 84.48889 23391 ft 443 kts 262°
2026-04-30 19:17 27.68279 84.45438 23717 ft 446 kts 262°
2026-04-30 19:18 27.67649 84.40851 24163 ft 448 kts 262°
2026-04-30 19:18 27.66662 84.35038 24768 ft 452 kts 259°
2026-04-30 19:18 27.66012 84.31555 25152 ft 454 kts 259°
2026-04-30 19:19 27.65356 84.28072 25502 ft 456 kts 260°
2026-04-30 19:19 27.64704 84.24566 25873 ft 458 kts 260°
2026-04-30 19:19 27.63423 84.17522 26618 ft 462 kts 261°
2026-04-30 19:20 27.62784 84.13958 26977 ft 464 kts 261°
2026-04-30 19:20 27.62153 84.10429 27331 ft 466 kts 261°
2026-04-30 19:20 27.60868 84.03247 28038 ft 469 kts 261°
2026-04-30 19:21 27.60219 83.99632 28385 ft 471 kts 261°
2026-04-30 19:21 27.58910 83.92356 29051 ft 475 kts 261°
2026-04-30 19:22 27.57581 83.85007 29680 ft 478 kts 261°
2026-04-30 19:22 27.55812 83.75261 30680 ft 474 kts 261°
2026-04-30 19:23 27.53838 83.64454 31956 ft 465 kts 262°
2026-04-30 19:24 27.52538 83.57350 32708 ft 461 kts 262°
2026-04-30 19:24 27.51892 83.53826 33065 ft 459 kts 262°
2026-04-30 19:24 27.50603 83.46810 33765 ft 455 kts 262°
2026-04-30 19:25 27.47963 83.36491 34417 ft 459 kts 257°
2026-04-30 19:26 27.45998 83.29646 34826 ft 459 kts 257°
2026-04-30 19:26 27.44021 83.22816 35213 ft 459 kts 257°
2026-04-30 19:26 27.43032 83.19395 35412 ft 458 kts 257°
2026-04-30 19:27 27.41085 83.12575 35779 ft 458 kts 258°
2026-04-30 19:28 27.38201 83.02238 35807 ft 469 kts 258°
2026-04-30 19:29 27.34220 82.88112 35811 ft 475 kts 258°
2026-04-30 19:30 27.30200 82.73960 35799 ft 474 kts 258°
2026-04-30 19:31 27.26180 82.59843 35797 ft 474 kts 258°
2026-04-30 19:31 27.23167 82.49300 35796 ft 474 kts 258°
2026-04-30 19:32 27.21144 82.42244 35802 ft 474 kts 258°
2026-04-30 19:32 27.19122 82.35203 35798 ft 474 kts 258°
2026-04-30 19:33 27.17095 82.28159 35793 ft 474 kts 258°
2026-04-30 19:33 27.15066 82.21126 35793 ft 474 kts 258°
2026-04-30 19:34 27.13068 82.14125 35790 ft 473 kts 259°
2026-04-30 19:35 27.10102 82.03563 35787 ft 473 kts 259°
2026-04-30 19:35 27.08118 81.96533 35786 ft 473 kts 259°
2026-04-30 19:36 27.06137 81.89542 35784 ft 473 kts 259°
2026-04-30 19:36 27.03141 81.79005 35783 ft 473 kts 259°
2026-04-30 19:37 27.01134 81.71965 35785 ft 473 kts 259°
2026-04-30 19:37 26.99125 81.64934 35786 ft 473 kts 259°
2026-04-30 19:38 26.97114 81.57908 35781 ft 474 kts 259°
2026-04-30 19:38 26.95108 81.50912 35786 ft 474 kts 259°
2026-04-30 19:39 26.93073 81.43883 35783 ft 475 kts 258°
2026-04-30 19:39 26.90886 81.36881 35787 ft 476 kts 257°
2026-04-30 19:40 26.88653 81.29891 35788 ft 476 kts 257°
2026-04-30 19:40 26.86436 81.22899 35797 ft 477 kts 258°
2026-04-30 19:41 26.84228 81.15897 35799 ft 477 kts 258°
2026-04-30 19:41 26.82024 81.08909 35802 ft 477 kts 258°
2026-04-30 19:42 26.79848 81.01898 35800 ft 474 kts 261°
2026-04-30 19:42 26.78806 80.94752 35800 ft 459 kts 275°
2026-04-30 19:43 26.79613 80.87770 35801 ft 448 kts 290°
2026-04-30 19:44 26.83997 80.78749 35804 ft 441 kts 310°
2026-04-30 19:44 26.87959 80.73499 35810 ft 441 kts 311°
2026-04-30 19:45 26.91962 80.68339 35814 ft 442 kts 311°
2026-04-30 19:45 26.95985 80.63109 35818 ft 443 kts 311°
2026-04-30 19:46 26.99992 80.57854 35821 ft 443 kts 311°
2026-04-30 19:46 27.03995 80.52584 35821 ft 444 kts 311°
2026-04-30 19:47 27.07993 80.47315 35820 ft 444 kts 311°
2026-04-30 19:47 27.11998 80.42033 35812 ft 444 kts 311°
2026-04-30 19:48 27.15980 80.36776 35810 ft 444 kts 311°
2026-04-30 19:48 27.19983 80.31485 35809 ft 444 kts 311°
2026-04-30 19:49 27.23979 80.26196 35803 ft 444 kts 311°
2026-04-30 19:49 27.29975 80.18248 35801 ft 444 kts 311°
2026-04-30 19:50 27.33971 80.12942 35806 ft 444 kts 311°
2026-04-30 19:50 27.37960 80.07641 35803 ft 444 kts 311°
2026-04-30 19:51 27.41922 80.02367 35800 ft 444 kts 311°
2026-04-30 19:51 27.45910 79.97053 35798 ft 445 kts 311°
2026-04-30 19:52 27.49903 79.91726 35796 ft 445 kts 311°
2026-04-30 19:52 27.53897 79.86392 35796 ft 445 kts 311°
2026-04-30 19:53 27.57891 79.81050 35792 ft 446 kts 311°
2026-04-30 19:53 27.61857 79.75740 35791 ft 446 kts 311°
2026-04-30 19:54 27.65860 79.70373 35789 ft 446 kts 311°
2026-04-30 19:54 27.69931 79.65092 35789 ft 446 kts 315°
2026-04-30 19:55 27.74295 79.60105 35789 ft 446 kts 315°
2026-04-30 19:55 27.78709 79.55158 35788 ft 446 kts 315°
2026-04-30 19:56 27.83124 79.50217 35784 ft 446 kts 315°
2026-04-30 19:56 27.87502 79.45303 35784 ft 446 kts 315°
2026-04-30 19:57 27.91908 79.40346 35783 ft 446 kts 315°
2026-04-30 19:57 27.96310 79.35385 35777 ft 446 kts 315°
2026-04-30 19:58 28.00707 79.30424 35772 ft 446 kts 315°
2026-04-30 19:58 28.05101 79.25461 35777 ft 446 kts 315°
2026-04-30 19:59 28.09497 79.20490 35774 ft 446 kts 315°
2026-04-30 20:00 28.16051 79.13066 35765 ft 446 kts 315°
2026-04-30 20:00 28.20434 79.08095 35762 ft 445 kts 315°
2026-04-30 20:01 28.27009 79.00624 35766 ft 445 kts 315°
2026-04-30 20:01 28.31380 78.95651 35766 ft 445 kts 315°
2026-04-30 20:02 28.37911 78.88208 35771 ft 445 kts 315°
2026-04-30 20:03 28.44462 78.80729 35772 ft 445 kts 315°
2026-04-30 20:03 28.49119 78.76102 35775 ft 445 kts 321°
2026-04-30 20:04 28.54018 78.71793 35775 ft 445 kts 321°
2026-04-30 20:05 28.61412 78.65401 35774 ft 445 kts 321°
2026-04-30 20:05 28.68763 78.59018 35778 ft 445 kts 321°
2026-04-30 20:06 28.73686 78.54729 35780 ft 445 kts 321°
2026-04-30 20:06 28.78604 78.50438 35781 ft 445 kts 321°
2026-04-30 20:07 28.83512 78.46151 35777 ft 445 kts 321°
2026-04-30 20:08 28.90881 78.39704 35779 ft 444 kts 321°
2026-04-30 20:08 28.95787 78.35407 35780 ft 444 kts 321°
2026-04-30 20:09 29.00690 78.31106 35785 ft 444 kts 321°
2026-04-30 20:09 29.07995 78.24688 35784 ft 443 kts 321°
2026-04-30 20:10 29.15326 78.18236 35788 ft 443 kts 321°
2026-04-30 20:11 29.22643 78.11784 35790 ft 442 kts 321°
2026-04-30 20:11 29.27518 78.07479 35796 ft 442 kts 321°
2026-04-30 20:12 29.34784 78.01052 35794 ft 442 kts 320°
2026-04-30 20:13 29.38859 77.97442 35794 ft 441 kts 320°
2026-04-30 20:13 29.44506 77.92435 35797 ft 441 kts 320°
2026-04-30 20:14 29.48576 77.88821 35796 ft 441 kts 320°
2026-04-30 20:14 29.53401 77.84531 35796 ft 441 kts 320°
2026-04-30 20:15 29.58261 77.80205 35794 ft 442 kts 320°
2026-04-30 20:15 29.63118 77.75876 35794 ft 442 kts 320°
2026-04-30 20:16 29.67978 77.71540 35796 ft 442 kts 320°
2026-04-30 20:16 29.72832 77.67203 35796 ft 442 kts 320°
2026-04-30 20:17 29.77692 77.62856 35797 ft 442 kts 320°
2026-04-30 20:17 29.82555 77.58501 35794 ft 442 kts 320°
2026-04-30 20:18 29.87412 77.54144 35794 ft 442 kts 320°
2026-04-30 20:18 29.92266 77.49786 35795 ft 442 kts 320°
2026-04-30 20:19 29.97130 77.45428 35790 ft 443 kts 321°
2026-04-30 20:19 30.02398 77.41791 35790 ft 446 kts 329°
2026-04-30 20:20 30.07929 77.38520 35796 ft 446 kts 330°
2026-04-30 20:20 30.13488 77.35314 35793 ft 447 kts 330°
2026-04-30 20:21 30.19045 77.32100 35793 ft 447 kts 330°
2026-04-30 20:21 30.24601 77.28868 35796 ft 447 kts 330°
2026-04-30 20:22 30.30155 77.25627 35801 ft 447 kts 330°
2026-04-30 20:22 30.35701 77.22360 35798 ft 446 kts 328°
2026-04-30 20:23 30.40670 77.18221 35799 ft 442 kts 315°
2026-04-30 20:23 30.44680 77.12847 35794 ft 442 kts 308°
2026-04-30 20:24 30.48408 77.07173 35785 ft 442 kts 307°
2026-04-30 20:24 30.52092 77.01469 35773 ft 442 kts 307°
2026-04-30 20:25 30.57647 76.92924 35755 ft 442 kts 307°
2026-04-30 20:26 30.63220 76.84377 35747 ft 442 kts 307°
2026-04-30 20:26 30.68457 76.75550 35746 ft 444 kts 298°
2026-04-30 20:27 30.73207 76.62322 35748 ft 445 kts 294°
2026-04-30 20:28 30.77750 76.48926 35740 ft 445 kts 294°
2026-04-30 20:30 30.83424 76.32276 35728 ft 445 kts 294°
2026-04-30 20:31 30.90240 76.12171 35715 ft 445 kts 293°
2026-04-30 20:32 30.95877 75.95450 35709 ft 444 kts 293°
2026-04-30 20:33 30.99254 75.85393 35704 ft 444 kts 293°
2026-04-30 20:34 31.02622 75.75333 35702 ft 444 kts 293°
2026-04-30 20:35 31.05980 75.65270 35696 ft 444 kts 293°
2026-04-30 20:35 31.09330 75.55203 35700 ft 444 kts 293°
2026-04-30 20:36 31.11559 75.48488 35701 ft 444 kts 293°
2026-04-30 20:37 31.14369 75.38225 35696 ft 445 kts 288°
2026-04-30 20:37 31.16018 75.31248 35691 ft 445 kts 288°
2026-04-30 20:38 31.17722 75.24298 35691 ft 445 kts 288°
2026-04-30 20:38 31.19467 75.17362 35690 ft 445 kts 289°
2026-04-30 20:39 31.22096 75.06954 35686 ft 445 kts 288°
2026-04-30 20:40 31.24701 74.96581 35688 ft 445 kts 288°
2026-04-30 20:40 31.26440 74.89630 35683 ft 445 kts 288°
2026-04-30 20:41 31.29038 74.79207 35681 ft 445 kts 288°
2026-04-30 20:41 31.30766 74.72255 35686 ft 445 kts 288°
2026-04-30 20:42 31.32493 74.65292 35695 ft 445 kts 288°
2026-04-30 20:42 31.34854 74.58696 35702 ft 443 kts 300°
2026-04-30 20:43 31.36592 74.55725 35706 ft 443 kts 308°
2026-04-30 20:43 31.41103 74.50708 35715 ft 447 kts 318°
2026-04-30 20:44 31.48490 74.44068 35720 ft 448 kts 319°
2026-04-30 20:45 31.58410 74.35208 35720 ft 448 kts 319°
2026-04-30 20:45 31.63349 74.30746 35716 ft 448 kts 319°
2026-04-30 20:46 31.73217 74.21807 35713 ft 448 kts 319°
2026-04-30 20:47 31.80620 74.15088 35714 ft 448 kts 319°
2026-04-30 20:48 31.88020 74.08359 35715 ft 448 kts 319°
2026-04-30 20:48 31.92954 74.03864 35715 ft 448 kts 319°
2026-04-30 20:49 31.97888 73.99363 35721 ft 448 kts 319°
2026-04-30 20:50 32.05247 73.92638 35722 ft 448 kts 319°
2026-04-30 20:50 32.28414 73.68743 35746 ft 0 kts 319°
2026-04-30 20:50 32.30544 73.66753 35843 ft 450 kts 324°
2026-04-30 20:50 32.33091 73.65023 35734 ft 453 kts 327°
2026-04-30 20:51 32.35873 73.63265 35721 ft 453 kts 326°
2026-04-30 20:51 32.43742 73.57256 35721 ft 447 kts 319°
2026-04-30 20:52 32.48681 73.52749 35723 ft 446 kts 317°
2026-04-30 20:53 32.55986 73.45889 35735 ft 446 kts 317°
2026-04-30 20:53 32.60863 73.41337 35736 ft 446 kts 317°
2026-04-30 20:54 32.68198 73.34512 35738 ft 446 kts 317°
2026-04-30 20:55 32.75395 73.27596 35743 ft 443 kts 312°
2026-04-30 20:55 32.79265 73.21956 35750 ft 440 kts 303°
2026-04-30 20:56 32.84358 73.12892 35758 ft 439 kts 301°
2026-04-30 20:57 32.89368 73.03782 35765 ft 438 kts 301°
2026-04-30 20:57 32.92722 72.97715 35765 ft 438 kts 301°
2026-04-30 20:58 32.97754 72.88615 35771 ft 438 kts 301°
2026-04-30 20:58 33.01086 72.82576 35773 ft 439 kts 301°
2026-04-30 20:59 33.06107 72.73454 35774 ft 439 kts 301°
2026-04-30 21:00 33.12785 72.61290 35768 ft 439 kts 301°
2026-04-30 21:01 33.17804 72.52119 35770 ft 439 kts 301°
2026-04-30 21:02 33.22804 72.42963 35767 ft 440 kts 301°
2026-04-30 21:02 33.26135 72.36850 35768 ft 440 kts 301°
2026-04-30 21:03 33.29469 72.30721 35764 ft 439 kts 301°
2026-04-30 21:03 33.32792 72.24601 35765 ft 439 kts 301°
2026-04-30 21:04 33.36118 72.18466 35765 ft 439 kts 301°
2026-04-30 21:04 33.41077 72.09302 35763 ft 440 kts 300°
2026-04-30 21:05 33.44401 72.03144 35766 ft 439 kts 300°
2026-04-30 21:05 33.47700 71.97023 35773 ft 439 kts 300°
2026-04-30 21:06 33.50912 71.90804 35772 ft 438 kts 295°
2026-04-30 21:06 33.52967 71.83993 35774 ft 436 kts 282°
2026-04-30 21:07 33.53349 71.76774 35775 ft 439 kts 270°
2026-04-30 21:07 33.52963 71.69469 35776 ft 440 kts 269°
2026-04-30 21:08 33.52557 71.63384 35779 ft 440 kts 268°
2026-04-30 21:08 33.52000 71.54843 35778 ft 440 kts 269°
2026-04-30 21:09 33.51623 71.48773 35785 ft 440 kts 269°
2026-04-30 21:09 33.51175 71.41481 35789 ft 440 kts 269°
2026-04-30 21:10 33.50722 71.34167 35793 ft 440 kts 268°
2026-04-30 21:10 33.50266 71.26872 35803 ft 440 kts 268°
2026-04-30 21:11 33.49804 71.19565 35808 ft 439 kts 268°
2026-04-30 21:11 33.49354 71.12284 35808 ft 439 kts 270°
2026-04-30 21:12 33.49829 71.05049 35818 ft 436 kts 283°
2026-04-30 21:12 33.51974 70.98262 35827 ft 438 kts 297°
2026-04-30 21:13 33.55717 70.92502 35837 ft 446 kts 310°
2026-04-30 21:13 33.60206 70.87353 35846 ft 448 kts 312°
2026-04-30 21:14 33.64794 70.82267 35853 ft 449 kts 312°
2026-04-30 21:14 33.69366 70.77158 35862 ft 449 kts 311°
2026-04-30 21:15 33.73918 70.72018 35867 ft 449 kts 311°
2026-04-30 21:15 33.78461 70.66866 35876 ft 449 kts 311°
2026-04-30 21:16 33.83003 70.61705 35875 ft 449 kts 311°
2026-04-30 21:16 33.87504 70.56585 35879 ft 448 kts 311°
2026-04-30 21:17 33.91939 70.51330 35866 ft 444 kts 306°
2026-04-30 21:17 33.95377 70.45256 35857 ft 438 kts 297°
2026-04-30 21:18 33.98299 70.38827 35871 ft 438 kts 295°
2026-04-30 21:18 34.01145 70.32339 35874 ft 438 kts 295°
2026-04-30 21:19 34.03982 70.25855 35875 ft 437 kts 295°
2026-04-30 21:19 34.06829 70.19377 35877 ft 437 kts 295°
2026-04-30 21:20 34.09659 70.12924 35877 ft 438 kts 295°
2026-04-30 21:20 34.12492 70.06422 35882 ft 439 kts 295°
2026-04-30 21:21 34.15344 69.99893 35890 ft 439 kts 295°
2026-04-30 21:22 34.19594 69.90134 35888 ft 437 kts 294°
2026-04-30 21:23 34.25203 69.77099 35905 ft 437 kts 294°
2026-04-30 21:23 34.29396 69.67335 35908 ft 438 kts 294°
2026-04-30 21:24 34.32193 69.60807 35918 ft 437 kts 294°
2026-04-30 21:24 34.34984 69.54281 35911 ft 437 kts 294°
2026-04-30 21:25 34.39140 69.44538 35912 ft 437 kts 294°
2026-04-30 21:26 34.43320 69.34712 35908 ft 437 kts 294°
2026-04-30 21:27 34.47485 69.24894 35914 ft 437 kts 294°
2026-04-30 21:27 34.50251 69.18356 35917 ft 437 kts 294°
2026-04-30 21:28 34.55201 69.09071 35930 ft 440 kts 301°
2026-04-30 21:29 34.60598 69.00078 35945 ft 440 kts 301°
2026-04-30 21:30 34.69601 68.85064 35970 ft 440 kts 301°
2026-04-30 21:31 34.78532 68.70013 36027 ft 441 kts 301°
2026-04-30 21:32 34.83925 68.60930 36060 ft 441 kts 301°
2026-04-30 21:32 34.87511 68.54872 36079 ft 442 kts 300°
2026-04-30 21:33 34.92884 68.45761 36091 ft 442 kts 300°
2026-04-30 21:34 34.96454 68.39698 36106 ft 444 kts 300°
2026-04-30 21:34 35.01832 68.30541 36090 ft 441 kts 301°
2026-04-30 21:35 35.05412 68.24455 36115 ft 441 kts 300°
2026-04-30 21:35 35.08923 68.18322 36103 ft 442 kts 300°
2026-04-30 21:36 35.12395 68.12128 36104 ft 442 kts 299°
2026-04-30 21:37 35.19368 67.99727 36095 ft 443 kts 299°
2026-04-30 21:37 35.22857 67.93528 36094 ft 443 kts 299°
2026-04-30 21:38 35.26353 67.87310 36100 ft 443 kts 299°
2026-04-30 21:38 35.29814 67.81144 36086 ft 444 kts 299°
2026-04-30 21:39 35.33354 67.74932 36101 ft 445 kts 300°
2026-04-30 21:39 35.36902 67.68730 36095 ft 445 kts 300°
2026-04-30 21:40 35.40455 67.62509 36100 ft 445 kts 299°
2026-04-30 21:40 35.43986 67.56296 36102 ft 445 kts 299°
2026-04-30 21:41 35.47522 67.50057 36102 ft 445 kts 299°
2026-04-30 21:41 35.51052 67.43819 36097 ft 445 kts 299°
2026-04-30 21:42 35.54568 67.37597 36097 ft 445 kts 299°
2026-04-30 21:42 35.58093 67.31350 36087 ft 446 kts 299°
2026-04-30 21:43 35.61625 67.25077 36088 ft 447 kts 299°
2026-04-30 21:43 35.65154 67.18799 36076 ft 447 kts 299°
2026-04-30 21:44 35.68688 67.12491 36064 ft 448 kts 299°
2026-04-30 21:44 35.72220 67.06182 36079 ft 447 kts 299°
2026-04-30 21:45 35.75714 66.99934 36043 ft 446 kts 299°
2026-04-30 21:45 35.79225 66.93644 36035 ft 447 kts 298°
2026-04-30 21:46 35.82762 66.87319 36035 ft 448 kts 299°
2026-04-30 21:46 35.86300 66.81006 36027 ft 447 kts 299°
2026-04-30 21:47 35.89829 66.74697 36024 ft 447 kts 299°
2026-04-30 21:47 35.93331 66.68422 36020 ft 448 kts 299°
2026-04-30 21:48 35.96860 66.62082 36016 ft 448 kts 299°
2026-04-30 21:48 36.00383 66.55743 36006 ft 449 kts 299°
2026-04-30 21:49 36.03913 66.49378 35998 ft 448 kts 298°
2026-04-30 21:49 36.07424 66.43036 35994 ft 448 kts 298°
2026-04-30 21:50 36.10938 66.36675 35992 ft 448 kts 298°
2026-04-30 21:50 36.14440 66.30329 35976 ft 449 kts 298°
2026-04-30 21:51 36.17963 66.23930 35978 ft 450 kts 298°
2026-04-30 21:51 36.21458 66.17572 35974 ft 450 kts 298°
2026-04-30 21:52 36.24985 66.11151 35977 ft 451 kts 298°
2026-04-30 21:52 36.28491 66.04734 35969 ft 451 kts 298°
2026-04-30 21:53 36.32008 65.98279 35974 ft 452 kts 298°
2026-04-30 21:53 36.35528 65.91813 35973 ft 452 kts 298°
2026-04-30 21:54 36.39043 65.85349 35965 ft 452 kts 298°
2026-04-30 21:54 36.42562 65.78865 35962 ft 453 kts 298°
2026-04-30 21:55 36.46086 65.72358 35959 ft 454 kts 298°
2026-04-30 21:55 36.49599 65.65862 35954 ft 455 kts 298°
2026-04-30 21:56 36.53105 65.59363 35954 ft 455 kts 298°
2026-04-30 21:56 36.56621 65.52834 35954 ft 456 kts 298°
2026-04-30 21:57 36.60147 65.46273 35954 ft 456 kts 298°
2026-04-30 21:57 36.63673 65.39702 35957 ft 457 kts 298°
2026-04-30 21:58 36.66604 65.34228 35959 ft 458 kts 298°
2026-04-30 21:58 36.70123 65.27644 35956 ft 458 kts 298°
2026-04-30 21:59 36.74235 65.19936 35957 ft 459 kts 298°
2026-04-30 22:00 36.79541 65.09964 35960 ft 460 kts 298°
2026-04-30 22:00 36.84242 65.01105 35960 ft 460 kts 297°
2026-04-30 22:01 36.87771 64.94437 35963 ft 460 kts 297°
2026-04-30 22:01 36.91296 64.87764 35964 ft 461 kts 297°
2026-04-30 22:02 36.94785 64.81034 35963 ft 459 kts 294°
2026-04-30 22:02 36.97247 64.73796 35965 ft 451 kts 284°
2026-04-30 22:03 36.99117 64.66352 35968 ft 451 kts 283°
2026-04-30 22:03 37.00898 64.58856 35970 ft 451 kts 282°
2026-04-30 22:04 37.02684 64.51331 35974 ft 451 kts 282°
2026-04-30 22:05 37.05375 64.40060 35978 ft 452 kts 282°
2026-04-30 22:05 37.07174 64.32515 35981 ft 452 kts 282°
2026-04-30 22:06 37.08967 64.24972 35980 ft 453 kts 282°
2026-04-30 22:06 37.11651 64.13632 35994 ft 453 kts 282°
2026-04-30 22:07 37.13438 64.06051 35988 ft 454 kts 282°
2026-04-30 22:07 37.15217 63.98480 35998 ft 454 kts 282°
2026-04-30 22:08 37.16996 63.90882 35998 ft 455 kts 282°
2026-04-30 22:08 37.18771 63.83276 36006 ft 455 kts 282°
2026-04-30 22:09 37.20534 63.75703 36010 ft 456 kts 282°
2026-04-30 22:09 37.22300 63.68094 36016 ft 456 kts 282°
2026-04-30 22:10 37.24070 63.60437 36024 ft 456 kts 282°
2026-04-30 22:10 37.25831 63.52794 36023 ft 457 kts 282°
2026-04-30 22:11 37.28473 63.41287 36037 ft 457 kts 282°
2026-04-30 22:12 37.30224 63.33624 36039 ft 457 kts 282°
2026-04-30 22:12 37.31976 63.25933 36041 ft 458 kts 282°
2026-04-30 22:13 37.33718 63.18264 36048 ft 458 kts 282°
2026-04-30 22:13 37.35450 63.10615 36049 ft 458 kts 282°
2026-04-30 22:14 37.37182 63.02938 36055 ft 458 kts 282°
2026-04-30 22:14 37.38912 62.95243 36059 ft 457 kts 282°
2026-04-30 22:15 37.40639 62.87540 36063 ft 457 kts 282°
2026-04-30 22:15 37.42361 62.79828 36066 ft 458 kts 282°
2026-04-30 22:16 37.44074 62.72129 36066 ft 458 kts 282°
2026-04-30 22:17 37.47490 62.56700 36078 ft 458 kts 282°
2026-04-30 22:17 37.50045 62.45094 36077 ft 459 kts 282°
2026-04-30 22:18 37.52581 62.33519 36087 ft 459 kts 282°
2026-04-30 22:19 37.55112 62.21901 36098 ft 459 kts 282°
2026-04-30 22:20 37.57633 62.10274 36114 ft 460 kts 282°
2026-04-30 22:20 37.60146 61.98621 36135 ft 460 kts 282°
2026-04-30 22:21 37.61818 61.90834 36131 ft 460 kts 281°
2026-04-30 22:21 37.63528 61.83096 36135 ft 461 kts 283°
2026-04-30 22:22 37.65356 61.75344 36127 ft 461 kts 283°
2026-04-30 22:22 37.67183 61.67596 36118 ft 462 kts 283°
2026-04-30 22:23 37.68991 61.59816 36114 ft 462 kts 282°
2026-04-30 22:23 37.70783 61.52037 36115 ft 462 kts 282°
2026-04-30 22:24 37.72571 61.44242 36108 ft 462 kts 282°
2026-04-30 22:24 37.74350 61.36464 36104 ft 462 kts 282°
2026-04-30 22:25 37.76118 61.28708 36107 ft 462 kts 282°
2026-04-30 22:25 37.77902 61.20855 36106 ft 462 kts 282°
2026-04-30 22:26 37.80544 61.09183 36106 ft 462 kts 282°
2026-04-30 22:27 37.82304 61.01376 36107 ft 462 kts 282°
2026-04-30 22:27 37.84935 60.89652 36109 ft 462 kts 282°
2026-04-30 22:28 37.87559 60.77897 36105 ft 462 kts 282°
2026-04-30 22:29 37.91034 60.62238 36106 ft 462 kts 282°
2026-04-30 22:31 37.97058 60.34830 36109 ft 462 kts 282°
2026-04-30 22:32 38.01326 60.15213 36110 ft 463 kts 282°
2026-04-30 22:33 38.05549 59.95553 36113 ft 463 kts 281°
2026-04-30 22:35 38.09733 59.75912 36116 ft 462 kts 281°
2026-04-30 22:36 38.13892 59.56212 36114 ft 462 kts 281°
2026-04-30 22:37 38.17199 59.40421 36115 ft 463 kts 281°
2026-04-30 22:38 38.20488 59.24600 36116 ft 464 kts 281°
2026-04-30 22:39 38.22943 59.12711 36117 ft 464 kts 281°
2026-04-30 22:40 38.27833 58.88838 36121 ft 468 kts 280°
2026-04-30 22:41 38.31898 58.68786 36122 ft 469 kts 280°
2026-04-30 22:43 38.36736 58.44669 36127 ft 470 kts 280°
2026-04-30 22:44 38.40064 58.28552 36125 ft 474 kts 285°
2026-04-30 22:45 38.48089 58.05363 36129 ft 477 kts 289°
2026-04-30 22:47 38.55792 57.83481 36128 ft 477 kts 289°
2026-04-30 22:48 38.61186 57.68032 36133 ft 477 kts 289°
2026-04-30 22:49 38.68094 57.44344 36133 ft 474 kts 285°
2026-04-30 22:51 38.74830 57.20518 36135 ft 475 kts 285°
2026-04-30 22:52 38.78178 57.08654 36138 ft 475 kts 285°
2026-04-30 22:53 38.82645 56.92726 36137 ft 475 kts 285°
2026-04-30 22:53 38.85979 56.80774 36145 ft 475 kts 285°
2026-04-30 22:55 38.91518 56.60797 36145 ft 475 kts 285°
2026-04-30 22:56 38.95908 56.44852 36148 ft 475 kts 285°
2026-04-30 22:57 39.01909 56.25003 36154 ft 480 kts 291°
2026-04-30 22:58 39.07880 56.09646 36156 ft 480 kts 292°
2026-04-30 22:59 39.16799 55.86638 36157 ft 479 kts 292°